This demonstration page uses our WeatherBlox Daily Observations layout. Learn more.

Left ArrowRight Arrow

47.50024, -111.30081

Hourly Observations for May 20, 2017

Temp ( °F °C ) Dew Point ( °F °C ) Humidity (%) Winds ( mph kmh ) Pressure ( in mb ) Visibility ( mi km ) Precip ( " mm )
12:53 am 00:53 Cloudy 50 10 41 5 71 71 N 5 7 30.03 1017 10 16 0.00 0.00
1:53 am 01:53 Mostly Cloudy 49 9.4 39 3.9 69 69 N 8 13 30.03 1017 10 16 0.00 0.00
2:53 am 02:53 Partly Cloudy 46 7.8 39 3.9 77 77 S 8 13 30.03 1017 10 16 0.00 0.00
3:53 am 03:53 Cloudy 43 6.1 40 4.4 89 89 SSW 9 15 30.04 1017 10 16 0.00 0.00
4:53 am 04:53 Cloudy 45 7.2 40 4.4 83 83 SW 9 15 30.04 1017 10 16 0.00 0.00
5:53 am 05:53 Mostly Cloudy 42 5.6 38 3.3 85 85 SW 8 13 30.06 1018 10 16 0.00 0.00
6:53 am 06:53 Sunny 46 7.8 39 3.9 77 77 SW 8 13 30.05 1018 10 16 0.00 0.00
7:53 am 07:53 Sunny 51 10.6 40 4.4 66 66 SW 5 7 30.06 1018 10 16 0.00 0.00
8:53 am 08:53 Sunny 55 12.8 40 4.4 57 57 WSW 6 9 30.06 1018 10 16 0.00 0.00
9:53 am 09:53 Sunny 59 15 41 5 51 51 W 9 15 30.07 1018 10 16 0.00 0.00
10:53 am 10:53 Sunny 62 16.7 42 5.6 48 48 WNW 7 11 30.07 1018 10 16 0.00 0.00
11:53 am 11:53 Sunny 64 17.8 41 5 43 43 N 8 13 30.05 1018 10 16 0.00 0.00
12:53 pm 12:53 Mostly Sunny 64 17.8 40 4.4 41 41 WNW 7 11 30.05 1018 10 16 0.00 0.00
1:53 pm 13:53 Cloudy 63 17.2 42 5.6 47 47 E 8 13 30.06 1018 10 16 0.00 0.00
2:12 pm 14:12 Mostly Cloudy with Nearby Thunderstorms 63 17.2 40 4.4 43 43 E 6 9 29.94 1014 10 16 0.00 0.00
2:50 pm 14:50 Partly Cloudy 66 19 39 4 37 37 N 15 24 29.91 1013 10 16 0.00 0.03
2:53 pm 14:53 Partly Cloudy 67 19.4 38 3.3 35 35 NNE 13 20 30.05 1018 10 16 0.00 0.03
3:53 pm 15:53 Mostly Cloudy 59 15 40 4.4 49 49 E 14 22 30.11 1020 10 16 0.00 0.00
4:53 pm 16:53 Cloudy 58 14.4 42 5.6 56 56 SSE 14 22 30.11 1020 10 16 0.00 0.03
5:53 pm 17:53 Cloudy 54 12.2 46 7.8 75 75 SSW 15 24 30.13 1020 10 16 0.02 0.51
6:53 pm 18:53 Mostly Cloudy 53 11.7 45 7.2 74 74 SSW 16 26 30.13 1020 10 16 0.00 0.00
7:53 pm 19:53 Cloudy 52 11.1 44 6.7 75 75 SW 13 20 30.13 1020 10 16 0.00 0.03
8:53 pm 20:53 Mostly Cloudy 50 10 45 7.2 83 83 SSW 13 20 30.14 1021 10 16 0.00 0.00
9:53 pm 21:53 Cloudy 50 10 43 6.1 77 77 SW 12 19 30.14 1021 10 16 0.00 0.00
10:53 pm 22:53 Mostly Cloudy 48 8.9 43 6.1 83 83 SW 12 19 30.15 1021 10 16 0.00 0.00
11:53 pm 23:53 Clear 45 7.2 42 5.6 90 90 SW 12 19 30.15 1021 10 16 0.00 0.00

Powered by AerisWeather